Flag for Australia Weather past 2 weeks in Wagga Wagga, New South Wales, Australia

Now
45 °F

Sunny.


Feels Like: 45 °F
Forecast: 42 / 59 °F
Wind: No wind

Location: Wagga Airport

Current Time: May 31, 2015 at 9:32:09 AM

Latest Report: May 31, 2015 at 9:00 AM


Visibility: 10 mi

Pressure: 30.07 "Hg

Humidity: 87%

Dew point: 41 °F

Location of Wagga WaggaLocation

Historic Weather in Wagga Wagga — Graph

°F

Wagga Wagga temperature yesterday

Maximum temperature yesterday: 59 °F (at 1:00 PM)
Minimum temperature yesterday: 36 °F (at 7:00 AM)
Average temperature yesterday: 47 °F

Past Weeks' High & Low Weather Summary

 TemperatureHumidityPressure
High66 °F (May 28, 3:00 PM)100% (May 18, 5:00 AM)30.60 "Hg (May 18, 5:00 AM)
Low36 °F (May 24, 1:00 AM)39% (May 22, 1:00 PM)29.89 "Hg (May 19, 2:00 PM)
Average51 °F78%30.25 "Hg
* Reported May 16 8:00 AM — May 31 8:00 AM, Wagga Wagga, Weather by CustomWeather, © 2015

Note: Actual official high and low records may vary slightly from our data, if they occured in-between our weather recording intervals... More about our weather records

Advertising

Wagga Wagga weather history for previous 24 hours

 ConditionsComfort  
Time TempWeatherWind HumidityBarometerVisibility
8:00 AM
Sun, May 31
41 °FSunny.3 mph93%30.07 "Hg10 mi
7:00 AM39 °FSunny.2 mph93%30.07 "Hg10 mi
6:00 AM37 °FClear.1 mph100%30.07 "Hg10 mi
5:00 AM39 °FPassing clouds.5 mph93%30.07 "HgN/A
4:00 AM39 °FClear.5 mph93%30.07 "HgN/A
3:00 AM41 °FClear.No wind87%30.07 "HgN/A
2:00 AM41 °FClear.No wind93%30.07 "HgN/A
1:00 AM41 °FClear.1 mph93%30.07 "HgN/A
12:00 AM43 °FClear.No wind87%30.09 "HgN/A
11:00 PM
Sat, May 30
43 °FClear.No wind87%30.12 "HgN/A
10:00 PM46 °FPassing clouds.No wind82%30.12 "HgN/A
9:00 PM48 °FOvercast.No wind76%30.12 "HgN/A
8:00 PM48 °FPassing clouds.No wind76%30.12 "HgN/A
7:00 PM50 °FPassing clouds.No wind67%30.12 "HgN/A
6:00 PM54 °FOvercast.5 mph58%30.12 "HgN/A
5:00 PM55 °FClear.7 mph55%30.12 "Hg10 mi
4:00 PM55 °FSunny.6 mph55%30.09 "Hg10 mi
3:00 PM57 °FScattered clouds.8 mph48%30.12 "HgN/A
2:00 PM59 °FSunny.10 mph42%30.12 "Hg10 mi
1:00 PM59 °FPartly sunny.10 mph42%30.15 "HgN/A
12:00 PM57 °FPartly sunny.5 mph55%30.18 "HgN/A
11:00 AM54 °FSunny.2 mph67%30.21 "Hg10 mi
10:00 AM48 °FSunny.2 mph82%30.24 "Hg10 mi
9:00 AM43 °FBroken clouds.No wind87%30.24 "HgN/A
Weather by CustomWeather, © 2015

See weather overviewHow to use our weather pages